Location: Aghk�ilisa
(40.0189°N, 45.0097°E)
Time: 13:39:46
(UTC+00:00)

Meteor 1-11 - Pass Details

Date: 21 October 2019
Orbit: 842 x 885 km, 81.2° (Epoch: 18 November)

Event Time Altitude Azimuth Distance (km) Brightness Sun altitude
Rises 15:20:26 0° 348° (NNW) 3,476 7.5 -13.7°
Reaches altitude 10° 15:22:53 10° 347° (NNW) 2,539 6.8 -14.2°
Maximum altitude 15:28:39 76° 264° (W) 913 4.5 -15.3°
Drops below altitude 10° 15:34:25 10° 179° (S) 2,537 6.7 -16.4°
Sets 15:36:52 0° 178° (S) 3,473 7.4 -16.9°
